Regional Weather Roundup
Issued by NWS Charleston, SC

Current Version | Previous Version | Text Only | Print | Product List | Glossary Off
Versions: 1 2 3 4 5 6 7 8 9 10 11 12 13 14 15 16 17 18 19 20 21 22 23 24 25 26 27 28 29 30 31 32 33 34 35 36 37 38 39 40 41 42 43 44 45 46 47 48 49 50
000 ASUS42 KCHS 210627 RWRCHS REGIONAL WEATHER ROUNDUP NATIONAL WEATHER SERVICE CHARLESTON SC 100 AM EST TUE FEB 21 2017 NOTE: "FAIR" INDICATES FEW OR NO CLOUDS BELOW 12,000 FEET WITH NO SIGNIFICANT WEATHER AND/OR OBSTRUCTIONS TO VISIBILITY. NOT ALL STATIONS ARE QUALITY CONTROLLED. USE DATA WITH CAUTION... ESPECIALLY DEWPOINT OBSERVATIONS. SCZ027-030-031-034>040-042>050-210700- ...SOUTHEAST SOUTH CAROLINA... CITY SKY/WX TMP DP RH WIND PRES REMARKS N CHARLESTON MOCLDY 52 50 93 NE3 30.17S 6HR MIN TEMP: 51; 6HR MAX TEMP: 63; WATERFRONT PRK N/A 58 58 100 VRB2 30.16S MOUNT PLEASANT LGT RAIN 52 52 100 CALM 30.18S JOHNS ISLAND FAIR 55 55 100 CALM 30.17S FOG PINOPOLIS N/A 55 54 94 CALM 30.10R MONCKS CORNER FAIR 50 48 93 CALM 30.18S SUMMERVILLE FAIR 50 46 87 CALM 30.19S BEAUFORT MCAS MOCLDY 54 54 100 CALM 30.16S 6HR MIN TEMP: 53; 6HR MAX TEMP: 64; BEAUFORT ARPT FAIR 55 55 100 NE5 30.16S HILTON HEAD IS CLOUDY 57 57 100 NE5 30.16S WALTERBORO PTCLDY 50 45 81 CALM 30.18S ALLENDALE FAIR 52 50 93 CALM 30.16R ...SOUTHERN MIDLANDS AND PEE DEE... CITY SKY/WX TMP DP RH WIND PRES REMARKS GEORGETOWN FAIR 52 52 100 CALM 30.20S KINGSTREE FAIR 50 46 87 CALM 30.20S ORANGEBURG CLOUDY 51 47 86 CALM 30.17F 6HR MIN TEMP: 51; 6HR MAX TEMP: 62; BARNWELL FAIR 52 48 87 CALM 30.18R AIKEN FAIR 50 45 81 CALM 30.20R MANNING FAIR 50 34 53 MISG 30.19S COLUMBIA MOCLDY 52 45 77 CALM 30.16F 6HR MIN TEMP: 51; 6HR MAX TEMP: 65; SUMTER PTCLDY 49 45 83 NE3 30.16S 6HR MIN TEMP: 49; 6HR MAX TEMP: 62; FLORENCE PTCLDY 52 48 86 CALM 30.21S 6HR MIN TEMP: 51; 6HR MAX TEMP: 64; MYRTLE BEACH NOT AVBL N MYRTLE BEACH PTCLDY 58 50 75 E8 30.20S 6HR MIN TEMP: 54; 6HR MAX TEMP: 59; $$ GAZ063-065-086>088-099>101-113>116-118-119-134>141-150-210700- ...SOUTHEAST GEORGIA... CITY SKY/WX TMP DP RH WIND PRES REMARKS SAVANNAH ARPT PTCLDY 57 55 93 CALM 30.15S 6HR MIN TEMP: 55; 6HR MAX TEMP: 63; HUNTER AAF CLOUDY 58 58 100 E3 30.12S 6HR MIN TEMP: 56; 6HR MAX TEMP: 61; FORT STEWART PTCLDY 53 49 89 CALM 30.12S 6HR MIN TEMP: 53; 6HR MAX TEMP: 64; STATESBORO CLOUDY 51 51 100 CALM 30.15S SYLVANIA PTCLDY N/A N/A N/A CALM 30.17S CLAXTON FAIR N/A N/A N/A CALM 30.15S ...CSRA...CENTRAL AND FAR SOUTHEAST GEORGIA... CITY SKY/WX TMP DP RH WIND PRES REMARKS THOMSON CLOUDY 51 49 94 CALM 30.20S AUGUSTA-BUSH CLOUDY 51 46 83 CALM 30.16R 6HR MIN TEMP: 50; 6HR MAX TEMP: 62; AUGUSTA-DANIEL CLOUDY 60 43 53 E6 30.16S SWAINSBORO FAIR 57 50 77 E5 30.16S VIDALIA CLOUDY 57 52 82 E3 30.15S EASTMAN FAIR 56 48 74 CALM 30.15F HAZLEHURST FAIR 60 50 69 CALM 30.12S ALMA PTCLDY 56 50 80 CALM 30.12F 6HR MIN TEMP: 56; 6HR MAX TEMP: 68; WAYCROSS PTCLDY 56 53 88 CALM 30.13S JESUP FAIR 52 48 87 CALM 30.14S BAXLEY FAIR 57 52 82 CALM 30.13S BRUNSWICK FOG 54 54 100 CALM 30.14S VSB 1/4 SAINT SIMONS CLOUDY 63 61 93 E7 30.12F 6HR MIN TEMP: 59; 6HR MAX TEMP: 63; $$ SCZ027-028-034-036>038-045-046-048>050-GAZ119-141-210700- ...LAKE AND SUPPLEMENTAL COASTAL OBSERVATIONS... STATION/POSITION TIME TEMP WIND PRES WAVE SWELL AIR SEA DIR/SP/G HT/PER HT/PER/DIR (UTC) (F) (DEG/KT/KT) (MB) (FT/S) (FT/S/D) WINYAH BAY 0530 57 50/ 5 1022.0S LAKE MURRAY 0620 55 CALM 1021.7R ACE BASIN NERRS 0530 53 CALM 1021.0S FORT PULASKI 0600 61 60 70/ 6/ 7 1021.0 SAPELO ISLAND 0600 62 90/ 6 1020.0 $$ ANZ835-935-AMZ111-154-330-350-352-354-370-450-454-472-210700- ...C-MAN AND BUOY OBSERVATIONS... STATION/POSITION TIME TEMP WIND PRES WAVE SWELL AIR SEA DIR/SP/G HT/PER HT/PER/DIR (UTC) (F) (DEG/KT/KT) (MB) (FT/S) (FT/S/D) BUOY 41004 0550 68 66 100/ 10/ 12 1021.1S 2/ 5 2/100/ 6 BUOY 41008 0550 63 62 80/ 6/ 6 1020.1F 1/ 4 2/110/ 5 FOLLY BEACH CMAN 0600 58 20/ 4/ 5 1022.0F CAPERS NEARSHORE 0608 60 60 30/ 6/ 8 1021.6R FRIPP NEARSHORE 0608 61 61 60/ 6/ 8 1020.6F STATION/POSITION TIME TEMP WIND PRES WAVE SWELL AIR SEA DIR/SP/G HT/PER HT/PER/DIR (UTC) (F) (DEG/KT/KT) (MB) (FT/S) (FT/S/D) 5E ST. MARYS GA 0600 64 N/A 1/ 3 FRYING PAN BUOY 0610 66 66 60/ 14/ 17 1022.4 BUOY 41025 0550 60 76 50/ 21/ 25 1023.0F 7/ 9 CAPE LOOKOUT NC 0600 54 20/ 10/ 12 1023.3S BUOY 41002 0550 68 71 40/ 16/ 19 1020.0F 4/ 6 BUOY 41010 NOT AVBL ST AUGUSTINE FL 0600 67 68 60/ 7/ 7 1020.5F $$

USA.gov is the U.S. government's official web portal to all federal, state and local government web resources and services.